Location: Unspecified
(41.1637°N, 24.2901°E)
Time: 07:19:58
(UTC+01:00)

ISS - Pass Details

Date: 04 December 2019
Orbit: 411 x 421 km, 51.6° (Epoch: 15 December)

Event Time Altitude Azimuth Distance (km) Brightness Sun altitude
Rises 16:50:26 0° 306° (NW) 2,358 0.6 -10.4°
Reaches altitude 10° 16:53:13 10° 331° (NNW) 1,497 -0.8 -10.9°
Maximum altitude 16:55:15 15° 9° (N) 1,232 -1.7 -11.3°
Enters shadow 16:56:27 13° 33° (NNE) 1,333 -1.7 -11.5°
